User: anonymous   Login
Location: Arrakis Observatory
(44.1122°N, 95.7153°W)
Time: 13:34:27
(UTC-05:00)
Language:

SL-8 R/B - Orbit

View from above orbital plane
View from above orbital plane
View from above satellite
View from above satellite

Ground track
Ground track

The orbit data is extracted from the following two-line orbital elements,

1 32751U 08014B   14304.13477003  .00358239  51982-4  10188-2 0   358
2 32751 098.1424 279.1390 0007568 075.2130 351.8005 15.93263423369102
Epoch (UTC): 31 October 2014 03:14:04
Eccentricity: 0.0007568
inclination: 98.1424°
perigee height: 288 km
apogee height: 298 km
right ascension of ascending node: 279.1390°
argument of perigee: 75.2130°
revolutions per day: 15.93263423
mean anomaly at epoch: 351.8005°
orbit number at epoch: 36910

The dashed part of the orbit path shows where the satellite is in the earth's shadow,  

DLR